Location: Home
(42.5358°N, 72.7383°W)
Time: 00:58:42
(UTC-05:00)

Vanguard 3 - Pass Details

Date: 06 December 2021
Orbit: 508 x 3260 km, 33.3° (Epoch: 21 January)

Event Time Altitude Azimuth Distance (km) Brightness Sun altitude
Rises 02:59:36 0° 237° (WSW) 6,720 - -44.6°
Reaches altitude 10° 03:03:54 10° 233° (SW) 5,916 - -43.8°
Exits shadow 03:16:31 45° 205° (SSW) 4,008 10.2 -41.5°
Maximum altitude 03:22:34 55° 163° (SSE) 3,635 10.2 -40.4°
Drops below altitude 10° 03:39:12 10° 92° (E) 5,355 12.0 -37.3°
Sets 03:42:51 0° 88° (E) 6,076 12.6 -36.7°
